Location: Breungeshain
(50.5000°N, 9.2000°E)
Time: 03:25:46
(UTC+00:00)

ISS - Visible Passes

Search period start: 25 May 2018 00:00
Search period end: 04 June 2018 00:00
Orbit: 402 x 407 km, 51.6° (Epoch: 25 May)

Date Brightness Start Highest point End Pass type
(mag) Time Alt. Az. Time Alt. Az. Time Alt. Az.
25 May -3.1 00:05:59 10° WNW 00:08:18 38° WSW 00:08:18 38° WSW visible
25 May -3.8 20:00:44 10° WSW 20:03:58 63° SSE 20:07:13 10° ENE visible
25 May -3.6 21:37:13 10° W 21:40:29 70° N 21:43:45 10° E visible
25 May -4.0 23:13:46 10° WNW 23:17:02 76° SSW 23:17:15 71° SSE visible
26 May -3.6 20:44:57 10° W 20:48:14 75° N 20:51:31 10° E visible
26 May -3.9 22:21:33 10° WNW 22:24:49 85° N 22:26:25 28° E visible
26 May -1.7 23:58:10 10° W 23:59:02 16° W 23:59:02 16° W visible
27 May -3.7 21:29:18 10° W 21:32:35 73° N 21:35:41 11° E visible
27 May -3.1 23:05:51 10° W 23:08:19 39° WSW 23:08:19 39° WSW visible
28 May -3.5 20:37:02 10° W 20:40:18 69° N 20:43:34 10° E visible
28 May -3.9 22:13:34 10° WNW 22:16:50 68° SSW 22:17:38 45° SE visible
29 May -3.9 21:21:19 10° WNW 21:24:36 89° S 21:27:01 17° ESE visible
29 May -2.1 22:58:00 10° W 22:59:38 21° WSW 22:59:38 21° WSW visible
30 May -3.7 20:29:02 10° WNW 20:32:19 77° N 20:35:36 10° E visible
30 May -3.4 22:05:35 10° W 22:08:42 40° SSW 22:09:02 39° S visible
31 May -3.8 21:13:15 10° WNW 21:16:30 60° SSW 21:18:26 21° SE visible
31 May -1.3 22:50:32 10° WSW 22:51:05 12° WSW 22:51:05 12° WSW visible
01 Jun -3.9 20:20:57 10° WNW 20:24:14 82° SSW 20:27:30 10° ESE visible
01 Jun -2.4 21:57:44 10° W 22:00:25 23° SW 22:00:31 23° SSW visible
02 Jun -3.0 21:05:14 10° W 21:08:16 35° SSW 21:09:59 20° SSE visible
03 Jun -3.5 20:12:51 10° WNW 20:16:03 52° SSW 20:19:14 10° SE visible
03 Jun -1.5 21:50:27 10° WSW 21:51:57 13° SW 21:52:06 13° SW visible
